This is the latest recevied weather packets stored in our database for station/object W8RSN-13. If no packets are shown the sender has not sent any weather packets the latest 10 day(s).
| Time | Temp. | Humidity | Pressure | Rain* | Wind** | Luminosity | Snow |
|---|---|---|---|---|---|---|---|
| 1787603301 | 37.78° C | 26% | 1015.3 hPa | - | - | - | - |
| 1787603000 | 37.22° C | 27% | 1015.7 hPa | - | - | - | - |
| 1787602700 | 36.67° C | 28% | 1015.4 hPa | - | - | - | - |
| 1787602399 | 37.22° C | 28% | 1015.4 hPa | - | - | - | - |
| 1787602098 | 37.22° C | 27% | 1015.7 hPa | - | - | - | - |
| 1787601797 | 37.22° C | 26% | 1015.6 hPa | - | - | - | - |
| 1787601496 | 37.22° C | 25% | 1015.7 hPa | - | - | - | - |
| 1787601215 | 36.67° C | 25% | 1016.1 hPa | - | - | - | - |
| 1787600914 | 36.67° C | 25% | 1015.8 hPa | - | - | - | - |
| 1787600613 | 36.67° C | 26% | 1015.9 hPa | - | - | - | - |
| 1787600312 | 36.67° C | 27% | 1015.8 hPa | - | - | - | - |
| 1787600011 | 36.11° C | 27% | 1016 hPa | - | - | - | - |
| 1787599710 | 36.11° C | 27% | 1016 hPa | - | - | - | - |
| 1787599410 | 36.11° C | 28% | 1016 hPa | - | - | - | - |
| 1787599109 | 36.11° C | 26% | 1016 hPa | - | - | - | - |
| 1787598808 | 36.11° C | 26% | 1016.2 hPa | - | - | - | - |
| 1787598507 | 35.56° C | 28% | 1016.2 hPa | - | - | - | - |
| 1787598206 | 35.56° C | 25% | 1016.4 hPa | - | - | - | - |
| 1787597905 | 35.56° C | 27% | 1016.6 hPa | - | - | - | - |
| 1787597604 | 35.56° C | 27% | 1016.5 hPa | - | - | - | - |
| 1787597303 | 35.56° C | 28% | 1016.5 hPa | - | - | - | - |
| 1787597002 | 35° C | 29% | 1016.8 hPa | - | - | - | - |
| 1787596701 | 34.44° C | 30% | 1016.7 hPa | - | - | - | - |
| 1787596401 | 34.44° C | 30% | 1016.8 hPa | - | - | - | - |
| 1787596100 | 34.44° C | 30% | 1016.7 hPa | - | - | - | - |
* Rain since midnight (hover to see other rain measurements)
** Current wind speed in m/s (hover to see current wind gust speed)